Location: Tauranga
(37.6860°S, 176.1670°E)
Time: 23:34:27
(UTC+12:00)

Daily predictions for brighter satellites

Satellite Brightness Start Highest point End
(mag) Time Altitude Azimuth Time Altitude Azimuth Time Altitude Azimuth
Cosmos 1844 Rocket 3.4 17:32:41 10° SSW 17:38:15 60° WNW 17:43:44 10° N
NOSS 0 Rocket 4.4 17:32:56 10° N 17:38:47 44° ENE 17:44:40 10° SE
Cosmos 2278 Rocket 3.3 17:35:17 10° S 17:39:52 24° ESE 17:44:24 10° ENE
COSMOS 2428 2.9 17:38:51 10° NNW 17:44:34 83° WSW 17:50:20 10° SSE
Cosmos 1354 Rocket 4.4 17:44:19 10° S 17:49:22 42° ESE 17:54:20 10° NE
Cosmos 2219 Rocket 2.8 17:45:11 10° NW 17:50:43 59° WSW 17:56:18 10° SSE
Cosmos 2360 Rocket 4.3 17:46:18 10° WNW 17:50:44 23° SW 17:55:13 10° S
Cosmos 1953 Rocket 4.1 17:47:58 10° NNW 17:52:23 65° W 17:56:55 10° S
Lacrosse 5 3.8 17:49:58 10° S 17:52:33 14° SSE 17:55:08 10° SE
Nadezhda 4 Rocket 4.2 17:46:44 10° N 17:52:52 78° W 17:59:08 10° S
Cosmos 1092 Rocket 4.0 17:47:37 10° N 17:53:43 63° E 17:59:57 10° SSE
USA 276 2.7 17:51:24 10° SW 17:54:29 40° SSE 17:57:31 10° ENE
H-2A R/B 4.2 17:57:02 11° E 17:57:46 11° E 17:58:59 10° ENE
Cosmos 2058 2.9 17:54:56 10° N 17:59:01 66° E 18:03:11 10° SSE
IRIDIUM 114 4.4 17:54:22 10° S 17:59:37 59° E 18:04:47 10° NNE
Meteor 2-8 Rocket 4.4 17:55:52 10° S 18:02:07 75° E 18:08:15 10° NNE
SMAP 3.7 17:58:36 10° SSE 18:02:58 36° E 18:07:16 10° NNE
Atlas Centaur 2 3.2 17:58:09 10° WNW 18:03:12 42° N 18:09:33 10° ENE
Cosmos 2026 Rocket 4.1 17:57:19 10° N 18:03:34 59° E 18:09:53 10° SSE
COSMO-SKYMED 1 4.0 17:59:29 10° N 18:03:39 43° W 18:07:52 10° SSW
CSL-04 DEB 4.3 18:00:48 10° NNE 18:04:42 71° ESE 18:08:42 10° S
CZ-2C R/B 2.8 18:00:00 10° NNE 18:05:33 65° ESE 18:11:10 10° S
H-2A R/B 4.0 18:01:55 10° NNW 18:05:40 32° W 18:09:27 10° SSW
DMSP B5D1-3 4.5 18:02:34 10° NNE 18:07:40 69° ESE 18:12:51 10° S
IRIDIUM 103 4.3 18:03:27 10° S 18:08:45 74° E 18:13:59 10° N
Cosmos 1825 2.4 18:05:17 10° NNW 18:09:04 74° W 18:12:54 10° S
USA 234 3.6 18:03:47 10° SE 18:10:19 65° SW 18:16:48 10° WNW
Cosmos 1408 4.4 18:09:12 10° NW 18:12:37 34° WSW 18:16:05 10° SSW
Cosmos 1980 3.7 18:09:09 10° N 18:14:46 68° ENE 18:20:27 10° SSE
Cosmos 405 Rocket 2.5 18:11:03 10° N 18:14:46 79° E 18:18:37 10° S
Cosmos 1842 Rocket 3.6 18:11:06 10° S 18:15:35 64° E 18:20:02 10° NNE
NOAA 6 4.0 18:14:53 10° SSE 18:20:05 71° ENE 18:25:12 10° N
Envisat 4.0 18:15:11 10° S 18:20:07 48° WSW 18:25:00 10° NW
FengYun 1-2 T 4.4 18:17:08 10° SSE 18:22:33 50° E 18:27:52 10° N
Radarsat Rocket 4.1 18:16:49 10° SSE 18:22:42 49° ENE 18:28:19 10° N
Cosmos 1356 3.9 18:21:04 10° NNW 18:24:27 62° W 18:27:54 10° S
SL-16 R/B 3.2 18:22:11 10° NNE 18:26:44 25° ENE 18:28:39 21° ESE
Cosmos 1437 Rocket 2.9 18:25:01 10° S 18:28:42 44° ESE 18:32:21 10° NNE
CZ-4B R/B 3.3 18:26:44 10° NNW 18:29:28 30° W 18:32:15 10° SW
MOS 1-B 4.4 18:24:21 10° SSE 18:30:11 61° ENE 18:35:56 10° N
Cosmos 2221 2.6 18:26:47 10° S 18:31:08 82° W 18:35:25 10° N
CZ-4B DEB 4.1 18:25:39 10° SSE 18:31:13 79° ENE 18:36:41 10° N
Cosmos 1689 Rocket 1.9 18:31:49 10° NNE 18:34:39 63° ESE 18:37:32 10° S
SL-8 R/B 4.3 18:30:53 10° WNW 18:35:39 53° SSW 18:38:38 22° SE
Cosmos 1606 2.7 18:31:59 10° S 18:35:46 54° E 18:39:27 10° NNE
USA 102 4.1 18:29:54 10° NE 18:36:47 50° ESE 18:38:00 39° SE
ATLAS 3B R/B 3.2 18:30:01 10° NW 18:37:29 66° SW 18:44:52 10° SSE
Meteor 2-15 Rocket 4.4 18:37:01 10° S 18:43:13 89° W 18:49:19 10° N
Cosmos 1076 Rocket 3.9 18:44:46 10° NNW 18:49:01 65° W 18:53:22 10° S
Cosmos 1461 4.0 18:47:08 10° S 18:50:14 29° SSE 18:50:14 29° SSE
Cosmos 1553 Rocket 3.8 18:47:18 10° S 18:53:27 71° E 18:59:31 10° NNE
Cosmos 1777 Rocket 3.9 18:49:14 10° SSW 18:54:34 77° ESE 18:59:48 10° NNE
Cosmos 2237 Rocket 2.8 18:51:34 10° NW 18:57:08 57° WSW 19:02:47 10° SSE
H-2A R/B 3.6 19:00:07 18° NE 19:00:07 18° NE 19:01:36 10° NNE
Cosmos 1809 Rocket 4.4 18:55:07 10° N 19:01:20 86° E 19:07:36 10° S
Cosmos 2151 2.9 18:58:39 10° N 19:02:52 86° W 19:05:43 21° S
CZ-2C R/B 2.7 18:59:03 12° SSE 19:03:30 82° ENE 19:08:17 10° N
CORIOLIS 4.4 18:59:11 10° S 19:04:40 70° WSW 19:10:05 10° NNW
ERS-2 2.3 19:01:30 10° N 19:05:09 73° WNW 19:08:53 10° SSW
CZ-2D R/B 3.5 19:08:10 56° NNE 19:08:10 56° NNE 19:11:23 10° N
Cosmos 1417 Rocket 4.4 19:01:43 10° S 19:08:11 78° E 19:14:30 10° N
Okean O Rocket 1.6 19:06:03 24° SSE 19:08:45 88° WSW 19:13:15 10° NNW
SJ 16-02 2.9 19:04:35 10° S 19:06:30 23° S 19:06:30 23° S
Cosmos 1633 3.6 19:08:50 10° NNW 19:12:15 44° W 19:14:15 22° SSW
Cosmos 1943 Rocket 3.9 19:14:06 10° S 19:15:55 18° SSE 19:15:55 18° SSE
Cosmos 1655 Rocket 3.9 19:13:19 10° N 19:19:37 85° E 19:26:05 10° S
Cosmos 2278 Rocket 3.2 19:18:42 10° SW 19:24:09 47° WNW 19:29:35 10° N
Meteor 2-3 Rocket 3.7 19:19:49 10° N 19:25:26 84° W 19:29:42 19° S
Cosmos 1939 Rocket 4.4 19:23:02 11° S 19:26:43 36° WSW 19:30:33 10° NW
CZ-4B R/B 3.7 19:25:20 10° S 19:30:34 55° WSW 19:35:44 10° NNW
Meteor 2-16 Rocket 4.3 19:25:40 10° N 19:31:46 80° E 19:33:54 43° SSE
H-2A R/B 3.4 19:33:35 43° W 19:33:35 43° W 19:37:06 10° NW
Lacrosse 5 3.0 19:31:38 10° SSW 19:34:45 33° S 19:34:45 33° S
Atlas Centaur 2 3.5 19:46:26 10° WNW 19:52:04 36° NNW 19:52:49 35° N
SL-16 R/B 3.3 20:05:14 10° NW 20:10:33 41° WSW 20:10:35 41° WSW
